Location: S�tio Afonso Gruber
(26.1760°S, 49.5250°W)
Time: 00:34:32
(UTC+00:00)

Intelsat 5-3 Rocket - Pass Details

Date: 08 October 2020
Orbit: 281 x 6111 km, 23.6° (Epoch: 22 October)

Event Time Altitude Azimuth Distance (km) Brightness Sun altitude
Exits shadow 04:39:33 72° 21° (NNE) 4,602 6.5 -50.5°
Drops below altitude 10° 05:16:58 10° 66° (ENE) 9,672 8.8 -44.7°
Sets 05:25:21 0° 67° (ENE) 10,534 9.1 -43.2°
